Temp
74 78 82 83 83 83 84 83 83 83 83 83 83 83 83 83 83 83 83 83 83 83 84 84 84 84 84 84 84 84 84 83 83 83 83 83 83 82 83 83 82 82 82
77 80 82 83 83 83 83 83 83 83 83 83 83 83 83 83 83 83 83 83 84 84 84 83 83 84 84 83 83 84 84 83 84 84 83 83 83 82 83 83 83 82 82
79 81 82 82 83 83 83 83 83 83 83 83 83 83 83 83 83 83 83 84 83 84 84 83 84 84 84 84 84 84 83 84 84 83 82 78 78 84 83 83 82 82 82
80 79 80 82 83 83 83 83 84 84 83 83 83 83 83 83 84 84 84 84 84 84 84 84 84 84 83 83 83 83 83 83 83 84 78 81 83 84 83 83 82 82 82
78 77 80 82 83 83 83 83 83 84 83 83 83 83 83 83 84 84 84 83 84 84 84 84 84 84 84 83 83 84 83 84 84 83 77 77 75 83 83 82 82 82 82
77 76 82 83 83 84 84 84 84 84 83 83 83 83 84 84 84 84 84 84 84 84 84 84 84 84 84 84 83 83 83 84 84 79 75 79 76 83 83 83 81 82 82
76 77 81 83 83 84 84 84 84 84 83 83 83 83 83 84 84 84 84 84 84 84 84 84 84 84 84 83 83 83 83 84 79 78 76 75 76 82 82 82 82 82 82
77 79 81 83 83 84 84 84 84 84 83 83 84 84 84 84 84 84 84 84 84 84 84 84 84 84 84 83 83 83 84 85 83 78 77 76 79 82 83 82 82 82 82
79 79 78 79 82 84 84 84 84 84 84 84 84 84 84 84 84 84 84 84 84 85 84 84 84 84 84 83 84 84 84 84 79 77 80 77 81 83 83 82 82 82 82
78 78 76 76 77 77 79 84 84 84 84 84 84 84 84 84 85 85 83 84 85 85 84 84 84 84 83 83 84 82 82 80 79 78 78 76 81 83 83 82 82 82 82
78 75 75 75 75 75 77 81 83 84 84 84 83 84 83 77 79 81 81 84 85 85 84 84 84 83 82 83 83 81 80 75 77 76 76 79 81 83 83 82 82 81 81
76 76 76 76 75 74 82 77 75 79 77 77 78 78 76 75 76 81 81 84 84 84 84 84 83 83 80 75 75 80 74 75 74 74 75 80 81 83 83 83 82 82 81
78 79 79 76 77 76 79 75 75 75 75 75 76 76 76 78 76 78 76 78 77 82 78 80 80 77 75 72 74 74 74 73 73 73 76 80 82 82 83 82 82 82 82
79 81 81 80 78 78 77 77 76 76 76 75 75 76 75 74 74 74 75 75 75 76 75 76 75 76 74 74 73 74 74 73 71 72 73 80 81 81 82 82 82 81 82
79 81 82 81 79 78 77 77 78 77 77 77 77 77 76 74 74 75 76 75 74 75 74 73 74 74 73 74 74 74 73 73 73 71 72 79 80 81 81 82 81 82 82
82 82 84 82 79 80 77 77 80 80 79 78 77 79 77 76 77 76 75 78 75 75 73 74 73 72 72 73 73 73 73 74 73 73 72 73 81 81 82 81 82 82 82
84 84 83 81 82 81 79 79 79 81 82 82 79 79 79 77 78 78 74 78 79 75 74 73 75 72 72 72 72 73 75 74 74 73 73 72 75 81 82 81 81 81 81
82 83 82 88 83 80 79 80 78 78 81 81 79 81 81 79 77 77 75 75 79 76 74 73 72 71 71 71 70 73 73 74 75 73 73 73 72 74 79 81 81 81 82
82 82 81 81 80 79 79 79 79 79 78 78 78 80 81 80 79 76 76 77 80 75 73 73 73 71 70 71 72 72 73 72 73 74 73 73 72 72 74 79 81 81 82
83 83 82 80 79 79 77 77 76 77 78 77 82 82 79 79 80 77 76 75 76 75 73 72 73 72 71 71 75 74 73 74 73 73 73 73 72 72 72 74 77 78 80
82 82 79 77 76 77 74 74 73 75 76 76 78 79 78 81 79 77 76 75 76 74 74 74 73 72 71 72 69 70 72 75 73 73 73 72 73 73 73 73 74 75 77
82 82 77 77 76 78 78 75 76 76 78 79 78 81 82 82 79 78 75 75 75 73 74 74 73 72 72 72 70 67 66 71 71 72 71 72 73 75 75 74 73 75 73
82 80 79 77 78 77 77 75 75 77 77 79 78 79 80 81 80 78 77 75 75 74 74 74 74 72 70 71 71 70 66 63 66 70 71 71 71 72 73 74 73 72 73
84 84 82 80 80 78 77 75 74 74 74 75 76 78 79 81 79 79 78 77 75 75 74 74 76 72 72 70 69 71 69 69 66 64 68 70 71 71 71 73 72 73 72
86 84 84 81 80 81 79 78 75 73 75 77 76 79 76 78 80 81 79 77 76 74 75 75 75 74 72 72 71 70 68 68 67 64 65 66 68 71 72 72 73 73 72
87 86 84 81 80 80 80 77 76 75 75 74 76 79 76 79 80 81 81 78 77 77 75 75 75 75 74 73 73 70 70 69 68 65 64 65 66 68 70 71 72 72 72
MSLP
1016.28 1016.09 1016.09 1016.17 1016.21 1016.26 1016.30 1016.52 1016.47 1016.67 1016.79 1016.89 1016.95 1016.89 1016.88 1017.00 1017.12 1017.11 1017.13 1017.12 1017.28 1017.46 1017.52 1017.57 1017.59 1017.60 1017.64 1017.70 1017.79 1017.86 1018.05 1018.15 1018.30 1018.34 1018.41 1018.50 1018.56 1018.63 1018.60 1018.68 1018.93 1019.17 1019.23
1015.65 1015.84 1015.99 1016.27 1016.28 1016.34 1016.39 1016.57 1016.71 1016.70 1016.97 1017.12 1017.06 1017.17 1017.12 1017.18 1017.24 1017.29 1017.31 1017.30 1017.43 1017.61 1017.70 1017.73 1017.73 1017.69 1017.80 1017.79 1017.82 1017.98 1018.06 1018.32 1018.49 1018.55 1018.55 1018.60 1018.63 1018.77 1018.82 1018.96 1019.04 1019.19 1019.44
1015.78 1015.86 1016.02 1016.30 1016.38 1016.35 1016.45 1016.67 1016.78 1016.68 1017.14 1017.22 1017.35 1017.21 1017.31 1017.27 1017.35 1017.31 1017.40 1017.47 1017.39 1017.67 1017.95 1017.94 1017.87 1017.82 1017.92 1017.96 1018.05 1018.22 1018.31 1018.45 1018.60 1018.75 1018.84 1018.78 1018.88 1018.76 1018.98 1019.12 1019.38 1019.47 1019.59
1015.71 1016.05 1016.03 1016.25 1016.38 1016.36 1016.53 1016.66 1016.76 1016.87 1017.23 1017.36 1017.32 1017.27 1017.45 1017.44 1017.52 1017.55 1017.59 1017.62 1017.67 1017.78 1018.00 1018.11 1018.02 1018.02 1018.11 1018.09 1018.19 1018.36 1018.46 1018.53 1018.68 1018.62 1019.03 1019.11 1019.04 1019.19 1019.28 1019.33 1019.49 1019.65 1019.81
1015.91 1016.04 1016.09 1016.12 1016.27 1016.40 1016.54 1016.66 1016.78 1017.02 1017.21 1017.39 1017.30 1017.34 1017.49 1017.65 1017.73 1017.83 1017.87 1017.88 1017.92 1017.95 1017.97 1018.03 1018.14 1018.21 1018.23 1018.25 1018.31 1018.50 1018.57 1018.56 1018.56 1018.73 1019.10 1019.25 1019.37 1019.36 1019.48 1019.66 1019.74 1019.84 1019.96
1016.07 1016.10 1016.04 1016.11 1016.23 1016.45 1016.58 1016.63 1016.80 1017.13 1017.26 1017.33 1017.39 1017.49 1017.64 1017.81 1017.89 1018.06 1018.02 1018.09 1018.16 1018.12 1018.14 1018.23 1018.28 1018.36 1018.44 1018.49 1018.60 1018.77 1018.76 1018.77 1018.62 1018.72 1018.97 1019.29 1019.47 1019.43 1019.53 1019.74 1019.89 1019.99 1020.15
1016.04 1016.13 1016.19 1016.05 1016.37 1016.51 1016.61 1016.67 1016.94 1017.16 1017.25 1017.40 1017.60 1017.73 1017.79 1017.95 1017.98 1018.16 1018.21 1018.23 1018.22 1018.18 1018.23 1018.22 1018.28 1018.37 1018.52 1018.76 1018.88 1018.84 1019.00 1018.69 1018.62 1018.74 1018.94 1019.24 1019.37 1019.44 1019.49 1019.79 1019.96 1020.13 1020.25
1015.77 1016.08 1016.12 1016.25 1016.47 1016.59 1016.57 1016.92 1017.09 1017.23 1017.35 1017.55 1017.77 1017.83 1017.93 1018.08 1018.12 1018.20 1018.26 1018.34 1018.36 1018.37 1018.38 1018.42 1018.52 1018.61 1018.69 1018.76 1018.85 1018.94 1018.84 1018.66 1018.62 1018.89 1019.03 1019.17 1019.01 1019.08 1019.44 1019.76 1020.01 1020.14 1020.26
1016.02 1016.07 1016.29 1016.46 1016.59 1016.62 1016.75 1016.97 1017.15 1017.27 1017.42 1017.68 1017.81 1017.92 1018.15 1018.25 1018.34 1018.40 1018.43 1018.40 1018.48 1018.52 1018.54 1018.54 1018.53 1018.62 1018.62 1018.55 1018.60 1018.82 1018.85 1018.72 1018.78 1018.96 1019.15 1019.16 1019.32 1019.24 1019.20 1019.73 1019.96 1020.16 1020.24
1016.14 1016.16 1016.49 1016.65 1016.71 1016.75 1016.88 1017.02 1017.24 1017.41 1017.60 1017.74 1017.80 1018.02 1018.22 1018.28 1018.38 1018.42 1018.51 1018.53 1018.60 1018.64 1018.76 1018.70 1018.66 1018.67 1018.87 1018.98 1018.75 1018.97 1018.92 1018.85 1018.62 1018.76 1019.16 1019.37 1019.58 1019.45 1019.47 1019.55 1019.89 1020.16 1020.21
1016.44 1016.53 1016.64 1016.80 1016.88 1016.93 1017.03 1017.09 1017.35 1017.54 1017.65 1017.78 1017.87 1018.03 1018.21 1018.43 1018.49 1018.51 1018.60 1018.53 1018.61 1018.69 1018.91 1018.92 1019.11 1019.18 1018.99 1018.89 1018.72 1018.86 1018.99 1019.05 1018.98 1019.00 1019.03 1019.23 1019.51 1019.60 1019.61 1019.62 1019.63 1019.84 1020.07
1016.37 1016.64 1016.76 1016.67 1016.81 1016.99 1016.95 1017.19 1017.53 1017.61 1017.73 1017.85 1017.94 1018.08 1018.29 1018.44 1018.64 1018.59 1018.65 1018.53 1018.53 1018.61 1018.81 1018.91 1019.00 1019.17 1019.22 1019.12 1019.03 1018.69 1018.93 1019.08 1019.02 1019.13 1019.24 1019.13 1019.11 1019.24 1019.40 1019.58 1019.59 1019.77 1020.04
1015.78 1016.26 1016.53 1016.49 1016.62 1016.88 1016.92 1017.47 1017.70 1017.81 1017.95 1017.97 1018.02 1018.14 1018.22 1018.35 1018.61 1018.63 1018.71 1018.59 1018.67 1018.55 1018.80 1018.88 1018.94 1019.05 1019.18 1019.09 1019.16 1019.15 1019.07 1019.08 1019.09 1019.08 1018.99 1018.91 1018.86 1019.01 1019.17 1019.32 1019.39 1019.71 1019.83
1015.52 1015.74 1016.09 1016.16 1016.52 1016.76 1016.93 1017.32 1017.49 1017.62 1017.85 1017.92 1017.98 1018.02 1018.19 1018.46 1018.65 1018.75 1018.68 1018.55 1018.56 1018.55 1018.75 1018.83 1019.10 1019.11 1019.17 1019.10 1019.17 1019.01 1018.87 1018.77 1018.88 1018.90 1018.98 1018.89 1018.98 1018.92 1018.84 1019.14 1019.35 1019.54 1019.55
1015.11 1015.37 1015.67 1015.92 1016.29 1016.51 1016.80 1017.08 1017.26 1017.51 1017.73 1017.85 1017.90 1017.95 1017.94 1018.11 1018.34 1018.45 1018.44 1018.47 1018.46 1018.46 1018.62 1018.74 1018.75 1018.80 1018.91 1018.95 1018.79 1018.76 1018.57 1018.47 1018.34 1018.44 1018.66 1018.65 1018.72 1018.66 1018.78 1018.85 1019.11 1019.36 1019.34
1014.59 1014.90 1015.26 1015.61 1015.68 1016.08 1016.59 1016.70 1016.83 1017.07 1017.32 1017.50 1017.60 1017.48 1017.52 1017.62 1017.69 1018.12 1018.30 1018.26 1018.33 1018.38 1018.54 1018.64 1018.55 1018.55 1018.68 1018.70 1018.44 1018.28 1018.11 1018.12 1017.97 1018.26 1018.19 1018.32 1018.37 1018.44 1018.42 1018.53 1018.59 1019.00 1019.20
1013.89 1014.39 1014.81 1015.19 1015.34 1015.73 1016.27 1016.36 1016.47 1016.59 1016.84 1017.05 1017.14 1017.19 1017.32 1017.36 1017.32 1017.43 1017.90 1017.84 1017.86 1018.01 1018.36 1018.64 1018.51 1018.37 1018.55 1018.68 1018.38 1017.95 1017.86 1017.70 1017.64 1017.80 1017.79 1017.88 1018.04 1017.97 1018.21 1018.35 1018.48 1018.58 1018.82
1013.53 1014.10 1014.39 1014.85 1015.26 1015.36 1015.78 1015.65 1016.01 1016.35 1016.54 1016.63 1016.74 1016.79 1016.97 1017.05 1017.00 1017.16 1017.48 1017.61 1017.51 1017.77 1018.02 1018.18 1018.41 1018.57 1018.47 1018.48 1018.41 1017.86 1017.69 1017.50 1017.31 1017.26 1017.33 1017.45 1017.68 1017.53 1017.67 1017.82 1017.99 1018.33 1018.51
1013.13 1013.71 1014.18 1014.44 1014.79 1014.99 1015.18 1015.30 1015.57 1016.27 1016.21 1016.31 1016.47 1016.64 1016.72 1016.86 1016.85 1017.05 1017.25 1017.22 1017.22 1017.66 1017.97 1018.21 1018.23 1018.30 1018.39 1018.28 1018.13 1017.63 1017.25 1017.14 1016.95 1016.76 1016.82 1016.93 1017.08 1017.15 1017.24 1017.27 1017.48 1017.72 1017.89
1012.69 1013.22 1013.71 1014.10 1014.45 1014.82 1015.15 1015.41 1015.67 1015.79 1015.87 1016.07 1016.05 1016.26 1016.54 1016.57 1016.58 1016.81 1017.02 1017.11 1017.19 1017.53 1017.86 1017.98 1017.95 1017.99 1018.06 1017.96 1017.91 1017.34 1016.84 1016.41 1016.32 1016.20 1016.25 1016.43 1016.61 1016.68 1016.76 1016.92 1017.00 1017.14 1017.27
1012.51 1013.05 1013.59 1013.99 1014.30 1014.68 1015.29 1015.66 1015.84 1015.94 1015.94 1016.07 1016.07 1016.00 1016.18 1016.15 1016.34 1016.62 1016.74 1016.88 1016.93 1017.32 1017.58 1017.69 1017.77 1017.89 1017.87 1017.77 1017.93 1017.34 1016.48 1015.81 1015.72 1015.72 1015.91 1016.12 1015.97 1015.96 1016.18 1016.25 1016.43 1016.64 1016.84
1012.22 1012.71 1013.31 1013.64 1014.01 1014.44 1014.84 1015.15 1015.36 1015.56 1015.60 1015.53 1015.61 1015.62 1015.74 1015.83 1016.02 1016.23 1016.46 1016.74 1016.78 1017.08 1017.26 1017.41 1017.63 1017.65 1017.53 1017.45 1017.92 1017.94 1017.16 1016.18 1015.93 1015.70 1015.88 1015.95 1015.48 1015.14 1015.30 1015.46 1015.66 1015.90 1016.13
1011.72 1012.20 1012.64 1012.99 1013.40 1013.97 1014.41 1014.92 1015.28 1015.47 1015.54 1015.54 1015.50 1015.58 1015.53 1015.59 1015.65 1015.78 1015.89 1016.10 1016.40 1016.61 1016.80 1016.90 1017.05 1017.43 1017.42 1017.15 1017.32 1017.60 1017.52 1017.26 1016.76 1015.86 1015.56 1015.50 1015.36 1015.06 1014.73 1014.79 1015.11 1015.35 1015.56
1010.80 1011.26 1011.70 1012.27 1012.73 1013.34 1013.96 1014.58 1015.06 1015.32 1015.58 1015.30 1015.19 1015.13 1015.17 1015.13 1015.29 1015.33 1015.47 1015.65 1015.82 1016.10 1016.31 1016.47 1016.73 1016.91 1017.17 1017.20 1017.30 1017.30 1017.25 1017.22 1017.28 1016.59 1015.73 1015.12 1014.88 1014.66 1014.41 1014.64 1015.06 1015.11 1015.55
1010.07 1010.57 1011.07 1011.72 1012.36 1012.91 1013.44 1013.90 1014.57 1015.10 1015.21 1014.92 1014.88 1014.83 1015.07 1015.03 1014.81 1014.84 1014.96 1015.24 1015.66 1015.83 1015.92 1016.14 1016.35 1016.49 1016.77 1017.02 1017.10 1017.16 1017.12 1016.96 1017.00 1017.38 1016.44 1015.56 1015.04 1014.28 1014.06 1014.13 1014.02 1014.32 1014.71
1009.44 1010.05 1010.64 1011.29 1011.78 1012.30 1012.85 1013.28 1013.89 1014.40 1014.69 1014.84 1014.78 1014.82 1014.77 1014.62 1014.52 1014.35 1014.45 1014.77 1014.85 1015.25 1015.39 1015.54 1015.74 1016.02 1016.19 1016.44 1016.53 1016.77 1016.84 1016.70 1016.67 1016.90 1016.76 1015.88 1015.18 1014.20 1013.78 1013.76 1014.02 1013.81 1014.06
Wind_Speed
5 6 10 11 9 9 15 13 13 11 10 10 11 11 13 12 12 12 13 13 14 14 13 12 11 11 12 13 13 13 13 14 14 15 16 15 14 14 15 16 14 11 15
10 8 11 11 11 11 13 13 12 12 10 9 11 10 12 11 12 11 12 12 12 13 12 12 11 12 13 13 13 14 13 13 13 14 13 12 13 13 13 14 13 11 14
11 9 10 11 11 12 12 12 12 12 9 9 11 11 10 11 11 10 12 10 12 13 13 10 11 11 12 11 11 12 11 12 13 12 10 4 5 13 14 15 13 13 12
12 7 8 10 10 11 11 12 11 11 10 10 11 11 11 11 11 10 11 11 10 10 13 11 11 10 10 8 8 9 9 9 9 9 4 3 7 12 13 13 13 12 12
10 7 9 12 12 11 11 12 12 12 11 11 11 11 10 10 10 10 11 10 9 10 11 11 11 10 9 6 6 7 7 5 4 3 3 4 3 9 12 12 12 13 12
8 7 11 14 13 12 12 13 13 12 12 12 11 11 11 11 10 10 10 12 10 10 10 10 9 8 8 6 4 5 3 2 5 1 6 7 4 11 12 11 11 13 12
11 7 9 12 13 12 12 13 13 12 13 12 11 10 10 11 10 10 9 9 10 10 8 7 7 7 6 6 6 5 6 7 5 6 7 6 6 9 10 11 11 12 12
14 9 9 13 13 12 12 13 12 12 12 11 10 10 10 10 9 10 10 9 9 8 7 6 4 4 6 5 6 5 5 7 4 3 5 4 10 14 11 11 10 11 13
10 9 6 6 10 13 12 12 12 12 11 11 11 10 10 10 9 9 8 8 8 7 5 5 5 5 4 5 5 5 5 3 2 4 5 3 9 11 13 11 10 10 10
10 9 6 5 5 5 5 12 12 11 11 11 10 10 9 9 9 9 8 7 6 6 5 4 6 8 5 5 5 10 9 9 4 5 3 3 6 10 12 13 10 9 8
7 5 6 6 6 5 5 7 11 12 11 11 10 10 8 3 4 6 7 9 7 5 5 4 5 4 5 5 7 8 7 2 2 1 3 8 8 9 11 11 11 10 9
10 8 7 8 7 6 6 4 5 6 4 4 4 5 4 4 4 5 7 10 9 8 7 7 7 6 2 1 1 5 3 3 2 3 2 9 11 11 11 11 12 11 10
13 10 9 7 7 7 5 3 2 2 2 3 5 5 5 3 3 3 2 2 2 7 2 4 4 3 3 3 2 3 3 4 2 2 4 10 11 11 11 12 12 12 12
13 13 11 9 9 7 4 5 4 3 3 3 4 5 4 2 3 4 3 4 4 3 4 4 2 3 4 4 5 5 5 4 3 3 4 10 10 10 11 11 10 12 12
13 12 13 11 10 7 7 5 5 5 4 4 4 5 4 4 4 4 4 3 4 4 4 4 4 5 5 5 5 6 6 6 6 4 3 12 11 11 11 13 11 12 14
13 13 13 12 9 8 6 7 6 5 6 6 5 8 8 5 5 5 4 5 4 4 3 4 4 4 5 4 5 6 7 6 7 5 5 6 14 13 12 13 13 14 15
15 12 12 9 8 11 9 7 7 8 7 7 6 5 8 6 6 5 5 4 5 4 5 4 4 2 2 3 7 6 5 7 6 6 6 5 8 17 16 16 15 15 16
10 14 11 11 9 9 8 6 4 5 6 6 5 6 6 6 6 5 3 4 4 4 4 3 3 3 4 4 4 7 6 5 6 7 7 6 5 6 13 19 16 15 17
12 12 12 8 8 8 7 4 4 6 5 4 4 5 7 6 6 5 4 4 4 3 3 3 4 3 4 5 6 6 7 5 7 6 9 9 8 6 5 13 18 16 19
13 14 12 8 9 8 5 3 1 1 1 3 6 6 7 6 6 5 4 4 3 3 4 4 5 4 4 4 5 6 6 7 6 8 8 8 8 9 8 9 8 10 19
12 14 11 9 8 6 3 3 1 3 2 2 4 6 7 6 6 6 4 4 3 3 4 3 2 4 3 3 2 4 5 8 8 6 5 5 8 9 9 9 7 6 8
16 14 9 9 9 8 5 3 3 3 3 3 4 6 8 9 7 6 6 5 5 3 5 4 5 2 3 3 2 1 4 5 2 5 3 6 11 7 8 10 9 11 8
15 13 12 11 13 10 9 3 1 1 2 2 3 3 6 6 8 8 7 6 6 4 4 5 4 5 4 2 4 3 3 3 3 1 4 5 6 6 6 7 9 10 9
17 15 14 12 14 11 10 5 6 4 4 3 4 5 6 8 6 7 7 7 6 4 5 5 4 4 3 4 1 3 3 3 3 6 3 4 4 6 7 4 4 7 7
18 16 14 14 13 12 12 9 6 5 4 3 2 4 5 5 8 9 8 7 6 5 5 6 5 4 3 2 3 1 1 2 1 3 7 4 3 5 7 6 8 9 8
17 16 15 14 14 13 13 11 10 9 7 5 4 4 4 5 6 9 8 6 6 6 6 6 6 5 4 3 3 3 3 3 3 3 4 5 6 5 3 5 7 7 6
Wind_Direction
174 158 150 137 129 106 123 130 128 117 101 94 89 85 84 85 85 89 92 97 99 101 106 107 111 106 105 103 105 107 107 111 113 114 117 118 118 122 123 121 118 115 116
142 152 141 143 130 123 117 128 128 119 115 105 99 95 92 97 92 97 94 98 104 101 105 107 114 110 107 106 110 112 112 116 121 122 120 119 124 130 124 122 118 116 122
140 144 138 142 138 132 128 130 131 124 123 112 112 107 106 105 109 107 105 108 107 107 107 110 103 104 101 104 109 111 114 124 127 120 104 87 105 126 128 124 123 122 123
142 147 141 141 140 137 136 142 138 131 128 125 118 115 112 114 113 115 113 114 110 112 113 113 109 100 97 100 96 101 109 122 132 114 101 90 105 115 126 130 131 131 127
142 140 151 138 137 140 146 143 140 139 134 132 125 121 120 122 116 119 117 122 117 114 120 120 113 106 104 100 98 99 98 119 148 188 119 130 116 127 133 139 138 139 139
141 145 148 146 142 145 145 142 140 141 139 136 136 130 130 129 122 120 123 122 124 120 114 110 114 111 112 113 86 79 67 349 242 109 123 147 134 142 142 144 151 143 153
143 152 152 145 148 148 149 141 146 139 133 139 142 143 147 131 135 132 130 129 139 140 136 131 125 113 102 96 73 37 33 12 76 128 129 145 154 144 143 143 152 148 151
143 151 152 148 152 153 151 151 146 136 137 144 146 142 144 140 143 138 145 140 146 146 141 133 133 127 109 98 86 63 45 50 120 128 122 150 158 146 146 147 153 158 160
145 145 138 152 158 158 155 152 147 140 145 151 151 149 147 146 149 145 145 153 152 143 130 127 147 162 146 114 87 76 49 20 21 148 153 164 166 159 149 153 160 165 172
151 149 146 155 147 154 155 155 147 149 150 153 156 154 163 158 160 161 157 173 157 150 116 123 134 150 125 81 91 61 60 24 69 132 149 167 173 171 160 157 166 167 177
148 151 159 156 164 158 154 163 156 159 159 161 162 168 174 170 174 175 177 186 176 169 143 147 129 136 132 110 122 125 95 117 123 99 157 174 189 180 171 166 172 175 177
165 177 176 170 175 164 173 162 158 167 164 161 175 185 179 190 186 193 203 197 192 191 185 184 192 188 93 129 353 162 159 166 156 197 200 195 196 189 181 183 187 181 186
173 172 179 178 178 172 174 147 166 151 164 189 190 199 207 199 207 208 207 211 212 210 219 215 219 193 221 218 218 226 212 208 187 250 231 212 205 191 198 200 198 189 189
174 178 178 180 176 186 157 168 180 175 182 200 211 214 200 211 209 207 209 203 205 211 204 228 206 221 228 229 223 227 222 227 217 217 240 238 228 207 192 206 208 199 194
178 181 183 182 184 180 171 168 184 190 188 201 210 213 205 204 212 195 216 210 210 213 200 211 223 226 211 233 221 217 226 222 220 211 214 244 233 231 205 199 207 216 206
181 185 186 181 182 177 179 183 197 191 186 205 208 212 210 203 202 185 203 217 222 219 198 198 209 213 220 237 252 223 233 229 228 207 215 221 232 230 232 213 205 213 219
190 178 184 171 178 181 179 196 206 189 194 203 207 198 211 209 212 183 196 215 210 204 213 209 227 209 225 231 264 251 239 231 231 213 219 211 226 230 226 221 215 211 220
168 180 178 177 181 153 182 182 147 169 193 208 187 201 212 198 185 186 185 206 186 190 218 221 188 216 249 235 251 261 254 244 240 224 222 223 219 216 228 227 222 213 220
158 166 173 165 172 172 179 195 195 168 178 197 176 183 197 203 191 185 199 209 189 184 210 240 232 194 225 247 241 257 260 236 232 230 221 220 221 220 211 226 223 214 219
164 169 175 177 176 172 175 175 216 332 139 192 191 189 188 199 201 201 215 228 205 201 210 229 236 224 227 236 257 265 257 252 225 222 216 217 220 226 214 216 219 219 218
167 171 177 170 187 153 157 165 175 205 208 190 209 193 195 200 200 209 220 236 217 221 218 223 235 247 262 221 289 287 275 250 246 231 209 217 229 221 214 209 211 213 222
177 184 167 181 173 176 174 180 172 167 216 183 198 202 202 205 203 210 206 222 221 220 243 237 211 241 248 200 241 18 329 327 341 245 219 215 231 224 212 214 209 213 208
178 184 178 178 173 177 179 153 105 55 334 167 189 200 220 204 210 208 204 211 221 205 227 232 232 209 260 300 204 172 325 273 324 327 256 245 239 233 224 211 220 226 214
190 186 184 179 176 179 175 171 172 175 211 227 191 200 207 217 220 212 208 209 217 213 231 229 234 228 174 275 348 245 234 213 270 318 312 301 248 242 241 230 218 236 222
188 188 190 183 182 184 183 182 176 185 207 224 237 215 209 223 218 222 212 210 216 217 231 231 251 247 189 216 222 279 273 274 257 238 294 304 316 263 249 215 198 229 203
192 191 188 185 191 185 186 183 181 195 206 200 210 218 224 222 225 228 225 218 219 217 224 229 232 242 243 225 244 225 231 243 260 206 257 268 259 285 263 207 213 226 189